• Join FlightAware (Why Join?)
  • Login
  • US Flag 
09:24AM EDT


 

Airport Tracker/Info


-or-


 

Live Flight TrackerFlight Track Log ✈ AWI3780 ✈ 01-May-2013 ✈ KBTV - KPHL

Flight Track Log - Related Links

Times and Time Zones

All times are in EDT time to prevent confusion due to time zone crossing. See the AWI3780 flight status page for this flight to view local times or setup timezone preferences in your user account.

Time Position Orientation Groundspeed Altitude Reporting Facility
EDT Latitude Longitude Course Direction KTS MPH feet Rate Location/Type
04:29PM 44.3689 -73.2619 195° South 246 283 7,200  Level Boston Center
04:30PM 44.0823 -73.2938 196° South  Level FlightAware Approximate
04:30PM 44.2997 -73.2928 198° South 275 316 9,900  Level Boston Center
04:31PM 43.9864 -73.3322 196° South  Level FlightAware Approximate
04:31PM 44.2264 -73.3528 210° Southwest 298 343 11,900  Level Boston Center
04:32PM 43.8905 -73.3702 195° South  Level FlightAware Approximate
04:32PM 44.1425 -73.4208 210° Southwest 339 390 13,700  Level Boston Center
04:33PM 43.7941 -73.4058 195° South  Level FlightAware Approximate
04:33PM 44.0522 -73.4914 209° Southwest 363 418 15,700  Level Boston Center
04:34PM 43.6977 -73.4414 195° South  Level FlightAware Approximate
04:34PM 43.9600 -73.5678 211° Southwest 377 434 17,400  Level Boston Center
04:35PM 43.8653 -73.6439 210° Southwest 391 450 18,500 1,200 Climbing Boston Center
04:36PM 43.7708 -73.7194 210° Southwest 396 456 19,900 1,320 Climbing Boston Center
04:37PM 43.6803 -73.7922 210° Southwest 402 463 21,200 1,440 Climbing Boston Center
04:38PM 43.5689 -73.8786 209° Southwest 413 475 22,800 1,920 Climbing Boston Center
04:39PM 43.4719 -73.9564 210° Southwest 418 481 25,100 1,560 Climbing Boston Center
04:40PM 43.3686 -74.0367 209° Southwest 403 464 26,000 420 Climbing Boston Center
04:41PM 43.2633 -74.1222 211° Southwest 421 484 26,000  Level Boston Center
04:42PM 43.1558 -74.2047 209° Southwest 441 507 26,000  Level Boston Center
04:43PM 43.0397 -74.2953 210° Southwest 457 526 26,000  Level Boston Center
04:44PM 42.9258 -74.3825 209° Southwest 474 545 26,000  Level Boston Center
04:45PM 42.8200 -74.4669 210° Southwest 480 552 26,000  Level Boston Center
04:46PM 42.7036 -74.5564 209° Southwest 485 558 26,000  Level Boston Center
04:47PM 42.5853 -74.6481 210° Southwest 485 558 26,000  Level Boston Center
04:48PM 42.4667 -74.7369 209° Southwest 490 564 26,000  Level Boston Center
04:49PM 42.3481 -74.8281 210° Southwest 490 564 26,000 -660 Level Boston Center
04:50PM 42.2317 -74.9189 210° Southwest 490 564 24,700 -1,800 Descending Boston Center
04:51PM 42.1169 -75.0094 210° Southwest 490 564 22,400 -2,160 Descending Boston Center
04:53PM 41.9467 -75.1489 211° Southwest 457 526 19,000 -1,320 Descending New York Center
04:54PM 41.8417 -75.2339 211° Southwest 445 512 19,000 -720 Level New York Center
04:55PM 41.7342 -75.3211 211° Southwest 431 496 17,600 -1,620 Descending New York Center
04:56PM 41.6417 -75.3953 211° Southwest 410 472 15,900 -1,680 Descending New York Center
04:57PM 41.5558 -75.4642 211° Southwest 384 442 14,300 -1,620 Descending New York Center
04:58PM 41.4861 -75.5397 219° Southwest 366 421 12,700 -1,140 Descending New York Center
04:59PM 41.4075 -75.6308 221° Southwest 355 409 12,000 -360 Descending New York Center
05:00PM 41.3142 -75.6711 198° South 355 409 12,000 -60 Level New York Center
05:01PM 41.2175 -75.6889 188° South 355 409 11,900 -60 Descending New York Center
05:02PM 41.1217 -75.6875 179° South 355 409 11,900  Level New York Center
05:03PM 41.0364 -75.6867 180° South 328 377 11,900  Level New York Center
05:04PM 40.9508 -75.6889 181° South 309 356 12,000  Climbing New York Center
05:05PM 40.8761 -75.6861 178° South 309 356 12,000  Level New York Center
05:06PM 40.7928 -75.6856 180° South 309 356 12,000 -60 Level New York Center
05:07PM 40.6989 -75.6844 179° South 309 356 11,900 -300 Descending New York Center
05:08PM 40.6156 -75.6867 181° South 309 356 11,500 -420 Descending New York Center
05:09PM 40.5572 -75.6333 145° Southeast 284 327 11,100 -420 Descending New York Center
05:10PM 40.5108 -75.5453 125° Southeast 275 316 10,700 -540 Descending New York Center
05:11PM 40.4625 -75.4519 124° Southeast 286 329 10,100 -840 Descending New York Center
05:12PM 40.3981 -75.3958 146° Southeast 271 312 9,100 -1,020 Descending New York Center
05:13PM 40.3217 -75.3772 169° South 271 312 8,100 -1,080 Descending New York Center
05:14PM 40.2556 -75.3592 168° South 277 319 7,000 -1,500 Descending New York Center
05:15PM 40.1728 -75.3456 173° South 277 319 5,200 -1,500 Descending New York Center
05:16PM 40.0972 -75.3594 188° South 271 312 4,100 -600 Descending New York Center
05:17PM 40.0258 -75.3739 189° South 266 306 4,100 -120 Level New York Center
05:17PM 40.0000 -75.3667 168° South 254 292 4,000 -180 Descending Philadelphia TRACON
05:18PM 39.9500 -75.3333 153° Southeast 216 249 3,900  Descending Philadelphia TRACON
05:19PM 39.8833 -75.3167 169° South 221 254 4,000 -180 Climbing Philadelphia TRACON
05:20PM 39.8333 -75.2833 153° Southeast 221 254 3,600 -840 Descending Philadelphia TRACON
05:21PM 39.7833 -75.2500 153° Southeast 206 237 2,300 -1,320 Descending Philadelphia TRACON